TimeCDT,TemperatureF,Dew PointF,Humidity,Sea Level PressureIn,VisibilityMPH,Wind Direction,Wind SpeedMPH,Gust SpeedMPH,PrecipitationIn,Events,Conditions,WindDirDegrees,DateUTC
12:54 AM,39.0,33.1,79,30.04,10.0,Calm,Calm,-,N/A,,Partly Cloudy,0,2011-10-29 05:54:00
1:54 AM,37.0,33.1,86,30.04,10.0,Calm,Calm,-,N/A,,Clear,0,2011-10-29 06:54:00
2:54 AM,35.6,32.0,87,30.03,10.0,SSW,3.5,-,N/A,,Clear,200,2011-10-29 07:54:00
3:54 AM,34.0,30.9,89,30.03,10.0,Calm,Calm,-,N/A,,Clear,0,2011-10-29 08:54:00
4:54 AM,32.0,28.4,87,30.02,10.0,Calm,Calm,-,N/A,,Clear,0,2011-10-29 09:54:00
5:54 AM,30.2,28.4,93,30.03,10.0,SSE,3.5,-,N/A,,Clear,150,2011-10-29 10:54:00
6:54 AM,30.9,28.0,89,30.05,10.0,Calm,Calm,-,N/A,,Clear,0,2011-10-29 11:54:00
7:54 AM,30.0,28.0,92,30.07,10.0,Calm,Calm,-,N/A,,Partly Cloudy,0,2011-10-29 12:54:00
8:54 AM,33.1,30.0,89,30.09,10.0,Calm,Calm,-,N/A,,Partly Cloudy,0,2011-10-29 13:54:00
9:54 AM,41.0,30.2,65,30.09,10.0,NW,8.1,-,N/A,,Partly Cloudy,310,2011-10-29 14:54:00
10:54 AM,46.0,30.9,56,30.12,10.0,Calm,Calm,-,N/A,,Partly Cloudy,0,2011-10-29 15:54:00
11:54 AM,51.1,30.0,44,30.12,10.0,NW,8.1,-,N/A,,Partly Cloudy,310,2011-10-29 16:54:00
12:54 PM,53.1,28.9,40,30.11,10.0,NNW,8.1,18.4,N/A,,Partly Cloudy,330,2011-10-29 17:54:00
1:54 PM,54.0,25.0,33,30.10,10.0,NW,12.7,17.3,N/A,,Scattered Clouds,310,2011-10-29 18:54:00
2:54 PM,54.0,23.0,30,30.09,10.0,NW,10.4,-,N/A,,Scattered Clouds,310,2011-10-29 19:54:00
3:54 PM,54.0,21.9,29,30.10,10.0,West,6.9,-,N/A,,Scattered Clouds,270,2011-10-29 20:54:00
4:54 PM,51.1,21.9,32,30.10,10.0,WNW,6.9,-,N/A,,Scattered Clouds,300,2011-10-29 21:54:00
5:54 PM,48.9,21.9,35,30.11,10.0,Calm,Calm,-,N/A,,Scattered Clouds,0,2011-10-29 22:54:00
6:54 PM,41.0,26.6,57,30.09,10.0,Calm,Calm,-,N/A,,Scattered Clouds,0,2011-10-29 23:54:00
7:54 PM,37.9,27.0,65,30.13,10.0,South,3.5,-,N/A,,Scattered Clouds,180,2011-10-30 00:54:00
8:54 PM,35.1,27.0,72,30.13,10.0,Calm,Calm,-,N/A,,Clear,0,2011-10-30 01:54:00
9:54 PM,35.1,27.0,72,30.14,7.0,Calm,Calm,-,N/A,,Clear,0,2011-10-30 02:54:00
10:54 PM,35.1,27.0,72,30.12,10.0,East,3.5,-,N/A,,Clear,100,2011-10-30 03:54:00
11:54 PM,34.0,26.1,73,30.12,10.0,Calm,Calm,-,N/A,,Clear,0,2011-10-30 04:54:00